Flag for Germany Weather past 2 weeks in Konstanz, Baden-Württemberg, Germany

Now
35 °F

Snow flurries. Overcast.


Feels Like: 30 °F
Forecast: 28 / 38 °F
Wind: 6 mph from Southwest

Location: Konstanz

Current Time: Mar 4, 2015 at 5:28:09 PM

Latest Report: Mar 4, 2015 at 4:00 PM


Visibility: 2 mi

Pressure: 30.37 "Hg

Humidity: 84%

Dew point: 31 °F

Location of KonstanzLocation

Historic Weather in Konstanz — Graph

°F

Konstanz temperature yesterday

Maximum temperature yesterday: 52 °F (at 4:00 PM)
Minimum temperature yesterday: 33 °F (at 7:00 AM)
Average temperature yesterday: 42 °F

Past Weeks' High & Low Weather Summary

 TemperatureHumidityPressure
High52 °F (Mar 3, 4:00 PM)100% (Feb 20, 4:00 AM)30.77 "Hg (Feb 20, 4:00 AM)
Low26 °F (Feb 20, 8:00 AM)40% (Feb 20, 5:00 PM)29.55 "Hg (Feb 21, 1:00 PM)
Average37 °F82%30.09 "Hg
* Reported Feb 17 4:00 PM — Mar 4 4:00 PM, Konstanz, Weather by CustomWeather, © 2015

Note: Actual official high and low records may vary slightly from our data, if they occured in-between our weather recording intervals... More about our weather records

Advertising

Konstanz weather history for previous 24 hours

 ConditionsComfort  
Time TempWeatherWind HumidityBarometerVisibility
4:00 PM
Wed, Mar 4
35 °FSnow flurries. Overcast.6 mph84%30.37 "Hg2 mi
3:00 PM43 °FOvercast.1 mph58%30.33 "Hg9 mi
2:00 PM42 °FSprinkles. Overcast.3 mph66%30.35 "Hg16 mi
1:00 PM41 °FOvercast.2 mph68%30.36 "Hg28 mi
12:00 PM40 °FOvercast.2 mph76%30.37 "Hg19 mi
11:00 AM39 °FOvercast.3 mph80%30.37 "Hg25 mi
10:00 AM39 °FOvercast.3 mph84%30.36 "Hg19 mi
9:00 AM38 °FOvercast.2 mph86%30.36 "Hg25 mi
8:00 AM37 °FOvercast.2 mph89%30.35 "Hg25 mi
7:00 AM36 °FOvercast.2 mph92%30.34 "Hg19 mi
6:00 AM37 °FLight rain. Low clouds.2 mph89%30.31 "Hg19 mi
5:00 AM37 °FOvercast.3 mph91%30.30 "Hg43 mi
4:00 AM37 °FLight rain. Overcast.5 mph91%30.28 "Hg13 mi
3:00 AM42 °FLight rain. Overcast.5 mph80%30.22 "Hg31 mi
2:00 AM44 °FOvercast.5 mph64%30.21 "Hg43 mi
1:00 AM43 °FClear.2 mph62%30.21 "Hg43 mi
12:00 AM44 °FPassing clouds.3 mph60%30.21 "Hg43 mi
11:00 PM
Tue, Mar 3
43 °FPassing clouds.3 mph63%30.20 "Hg43 mi
10:00 PM43 °FPassing clouds.3 mph69%30.21 "Hg34 mi
9:00 PM45 °FOvercast.2 mph60%30.19 "Hg19 mi
8:00 PM46 °FOvercast.2 mph61%30.19 "Hg25 mi
7:00 PM47 °FOvercast.3 mph58%30.17 "Hg28 mi
6:00 PM48 °FOvercast.2 mph52%30.16 "Hg37 mi
5:00 PM50 °FPartly sunny.5 mph45%30.16 "Hg47 mi
Weather by CustomWeather, © 2015

See weather overviewHow to use our weather pages